Ludington, MI

11:36 AM EDT on October 19, 2019 (GMT -0400)
Mason County

Weather History for KLDM - August, 2019

Change the Weather History Date:

Friday, August 16, 2019

  Actual Average Record
Temperature  
Mean Temperature 62 °F -  
Max Temperature 74 °F 79 °F 98 °F (1988)
Min Temperature 51 °F 56 °F 37 °F (1979)
Degree Days  
Heating Degree Days 2    
Growing Degree Days 12 (Base 50)    
Moisture  
Dew Point 59 °F    
Average Humidity 81    
Maximum Humidity 98    
Minimum Humidity 52    
Precipitation  
Precipitation 0.20 in - - ()
Sea Level Pressure  
Sea Level Pressure 29.92 in    
Wind  
Wind Speed 3 mph (South)    
Max Wind Speed 12 mph    
Max Gust Speed 17 mph    
Visibility 8 miles    
Events Fog , Rain    
Averages and records for this station are not official NWS values.
T = Trace of Precipitation, MM = Missing Value Source: NWS Daily Summary

Daily Weather History Graph

Daily Weather History Graph

Search for Another Location

Airport or City:

Astronomy

Aug. 16, 2019 Rise Set
Actual Time 6:50 AM EDT 8:48 PM EDT
Civil Twilight 6:19 AM EDT 9:19 PM EDT
Nautical Twilight 5:41 AM EDT 9:57 PM EDT
Astronomical Twilight 4:59 AM EDT 10:39 PM EDT
Moon 9:46 PM EDT (8/16) 7:41 AM EDT (8/16)
Length of Visible Light 15h 00m
Length of Day
13h 58m
Full, 99% of the Moon is Illuminated
Aug 16
Full
Aug 23
Last Quarter
Aug 30
New
Sep 5
First Quarter
Sep 14
Full

Hourly Weather History & Observations

Time (EDT) Temp. Dew Point Humidity Pressure Visibility Wind Dir Wind Speed Gust Speed Precip Events Conditions
12:16 AM 57.0 °F 56.3 °F 97% 29.99 in 5.0 mi Calm Calm - N/A   Clear
12:35 AM 54.7 °F 54.0 °F 97% 29.99 in 0.8 mi Calm Calm - N/A   Mist
12:36 AM 55.0 °F 54.1 °F 97% 29.99 in 0.5 mi Calm Calm - N/A Fog Fog
12:55 AM 53.8 °F 53.1 °F 97% 29.99 in 1.2 mi Calm Calm - N/A   Mist
12:56 AM 53.6 °F 52.9 °F 97% 29.99 in 1.2 mi Calm Calm - N/A   Mist
1:19 AM 55.0 °F 54.3 °F 97% 30.00 in 5.0 mi Calm Calm - N/A   Clear
1:37 AM 56.5 °F 55.8 °F 97% 30.00 in 4.0 mi Calm Calm - N/A   Clear
1:55 AM 54.1 °F 53.4 °F 97% 30.00 in 7.0 mi Calm Calm - N/A   Clear
1:56 AM 53.8 °F 53.1 °F 97% 30.00 in 7.0 mi Calm Calm - N/A   Clear
2:15 AM 55.2 °F 54.5 °F 97% 29.99 in 1.8 mi Calm Calm - N/A   Mist
2:16 AM 55.2 °F 54.5 °F 97% 29.99 in 2.0 mi Calm Calm - N/A   Clear
2:35 AM 53.8 °F 53.1 °F 97% 29.99 in 7.0 mi Calm Calm - N/A   Clear
2:57 AM 55.0 °F 54.3 °F 97% 29.98 in 10.0 mi Calm Calm - N/A   Clear
3:16 AM 55.0 °F 54.3 °F 97% 29.97 in 10.0 mi Calm Calm - N/A   Clear
3:35 AM 55.2 °F 54.7 °F 98% 29.98 in 7.0 mi Calm Calm - N/A   Clear
3:36 AM 55.4 °F 54.7 °F 97% 29.98 in 7.0 mi Calm Calm - N/A   Clear
3:55 AM 54.7 °F 54.0 °F 97% 29.97 in 2.5 mi Calm Calm - N/A   Clear
3:56 AM 54.7 °F 54.0 °F 97% 29.97 in 2.5 mi Calm Calm - N/A   Clear
4:18 AM 53.4 °F 52.7 °F 97% 29.97 in 1.8 mi Calm Calm - N/A   Mist
4:37 AM 52.5 °F 51.8 °F 97% 29.97 in 0.5 mi Calm Calm - N/A Fog Fog
4:55 AM 52.7 °F 52.0 °F 97% 29.96 in 0.5 mi Calm Calm - N/A Fog Fog
5:15 AM 53.4 °F 52.7 °F 97% 29.96 in 1.8 mi Calm Calm - N/A   Scattered Clouds
5:16 AM 53.6 °F 52.7 °F 97% 29.96 in 1.8 mi Calm Calm - N/A   Scattered Clouds
5:35 AM 54.5 °F 53.6 °F 97% 29.96 in 5.0 mi Calm Calm - N/A   Clear
5:40 AM 54.7 °F 54.0 °F 97% 29.96 in 5.0 mi Calm Calm - N/A   Clear
5:58 AM 53.6 °F 52.9 °F 97% 29.96 in 1.5 mi Calm Calm - N/A   Mist
6:16 AM 51.1 °F 50.4 °F 97% 29.96 in 1.2 mi Calm Calm - N/A   Mist
6:35 AM 54.5 °F 53.8 °F 97% 29.96 in 10.0 mi Calm Calm - N/A   Clear
6:55 AM 54.0 °F 53.2 °F 97% 29.96 in 10.0 mi East 3.5 mph - N/A   Clear
6:56 AM 54.1 °F 53.4 °F 97% 29.96 in 10.0 mi East 3.5 mph - N/A   Clear
7:19 AM 54.9 °F 54.1 °F 97% 29.96 in 10.0 mi Calm Calm - N/A   Clear
7:37 AM 56.8 °F 55.9 °F 97% 29.97 in 10.0 mi Calm Calm - N/A   Clear
7:55 AM 57.7 °F 57.0 °F 97% 29.97 in 10.0 mi SE 3.5 mph - N/A   Clear
8:15 AM 58.1 °F 57.4 °F 97% 29.97 in 10.0 mi Calm Calm - N/A   Clear
8:35 AM 59.9 °F 59.2 °F 97% 29.97 in 10.0 mi Calm Calm - N/A   Clear
8:58 AM 62.2 °F 61.2 °F 96% 29.98 in 10.0 mi Calm Calm - N/A   Clear
9:16 AM 64.8 °F 62.4 °F 92% 29.97 in 10.0 mi SSE 4.6 mph - N/A   Clear
9:35 AM 67.3 °F 63.3 °F 87% 29.96 in 10.0 mi ESE 6.9 mph - N/A   Clear
9:36 AM 67.5 °F 63.3 °F 87% 29.96 in 10.0 mi SE 8.1 mph - N/A   Clear
9:55 AM 68.5 °F 63.5 °F 84% 29.95 in 10.0 mi SSE 6.9 mph - N/A   Clear
10:19 AM 69.8 °F 63.1 °F 79% 29.94 in 10.0 mi SSE 4.6 mph - N/A   Clear
10:37 AM 70.3 °F 62.6 °F 76% 29.94 in 10.0 mi South 8.1 mph - N/A   Scattered Clouds
10:55 AM 70.9 °F 62.1 °F 74% 29.94 in 10.0 mi SSE 9.2 mph - N/A   Clear
11:15 AM 71.1 °F 62.4 °F 74% 29.94 in 10.0 mi South 9.2 mph - N/A   Scattered Clouds
11:16 AM 71.2 °F 62.4 °F 74% 29.94 in 10.0 mi South 10.4 mph - N/A   Scattered Clouds
11:35 AM 71.6 °F 60.4 °F 68% 29.95 in 10.0 mi South 9.2 mph - N/A   Scattered Clouds
11:57 AM 72.7 °F 61.7 °F 68% 29.95 in 10.0 mi SSW 6.9 mph - N/A   Mostly Cloudy
12:16 PM 71.8 °F 61.5 °F 70% 29.94 in 10.0 mi South 6.9 mph - N/A   Mostly Cloudy
12:35 PM 73.8 °F 63.7 °F 71% 29.94 in 10.0 mi SW 9.2 mph - N/A   Scattered Clouds
12:36 PM 73.8 °F 63.9 °F 71% 29.94 in 10.0 mi WSW 11.5 mph - N/A   Scattered Clouds
12:55 PM 72.0 °F 63.5 °F 75% 29.93 in 10.0 mi SW 10.4 mph - N/A   Clear
12:56 PM 72.1 °F 63.5 °F 74% 29.93 in 10.0 mi SW 10.4 mph - N/A   Clear
1:19 PM 72.7 °F 63.0 °F 71% 29.92 in 10.0 mi SW 10.4 mph 16.1 mph N/A   Scattered Clouds
1:37 PM 71.2 °F 61.9 °F 72% 29.92 in 10.0 mi SSW 9.2 mph - N/A   Mostly Cloudy
1:55 PM 70.7 °F 62.1 °F 74% 29.92 in 10.0 mi SW 10.4 mph - N/A   Overcast
1:56 PM 70.7 °F 61.9 °F 74% 29.92 in 10.0 mi SW 9.2 mph - N/A   Overcast
2:15 PM 70.2 °F 62.2 °F 76% 29.92 in 10.0 mi SSW 9.2 mph - N/A   Overcast
2:16 PM 70.2 °F 62.1 °F 75% 29.92 in 10.0 mi SW 10.4 mph - N/A   Overcast
2:35 PM 69.8 °F 62.6 °F 78% 29.92 in 10.0 mi SSW 8.1 mph - N/A Rain Light Rain
2:40 PM 70.7 °F 63.0 °F 76% 29.92 in 10.0 mi SSW 8.1 mph - N/A   Overcast
2:58 PM 74.5 °F 57.7 °F 56% 29.91 in 10.0 mi South 11.5 mph 17.3 mph N/A   Mostly Cloudy
3:16 PM 72.5 °F 56.7 °F 57% 29.90 in 10.0 mi South 8.1 mph - N/A   Mostly Cloudy
3:35 PM 73.4 °F 57.7 °F 58% 29.89 in 10.0 mi South 10.4 mph - N/A   Overcast
3:36 PM 73.4 °F 57.7 °F 58% 29.89 in 10.0 mi South 10.4 mph - N/A   Overcast
3:55 PM 73.4 °F 56.3 °F 55% 29.89 in 10.0 mi SSE 8.1 mph - N/A   Overcast
4:19 PM 73.8 °F 56.5 °F 55% 29.89 in 10.0 mi South 6.9 mph - N/A   Overcast
4:37 PM 74.3 °F 56.7 °F 54% 29.88 in 10.0 mi South 8.1 mph - N/A   Overcast
4:55 PM 73.9 °F 55.6 °F 53% 29.87 in 10.0 mi South 9.2 mph - N/A   Overcast
4:56 PM 73.9 °F 55.2 °F 52% 29.87 in 10.0 mi South 8.1 mph - N/A   Overcast
5:15 PM 73.8 °F 55.8 °F 53% 29.86 in 10.0 mi SSE 8.1 mph - N/A   Overcast
5:16 PM 73.8 °F 55.8 °F 53% 29.86 in 10.0 mi South 6.9 mph - N/A   Overcast
5:35 PM 74.8 °F 57.2 °F 54% 29.85 in 10.0 mi South 8.1 mph - N/A   Overcast
5:58 PM 73.6 °F 57.6 °F 57% 29.85 in 10.0 mi South 8.1 mph - N/A   Overcast
6:16 PM 73.4 °F 59.2 °F 61% 29.84 in 10.0 mi South 5.8 mph - N/A   Overcast
6:35 PM 74.1 °F 59.2 °F 59% 29.84 in 10.0 mi South 5.8 mph - N/A   Overcast
6:36 PM 74.3 °F 59.2 °F 59% 29.84 in 10.0 mi South 5.8 mph - N/A   Overcast
6:55 PM 73.8 °F 59.5 °F 61% 29.83 in 10.0 mi SSE 4.6 mph - N/A   Scattered Clouds
6:56 PM 73.8 °F 59.5 °F 61% 29.83 in 10.0 mi SSE 5.8 mph - N/A   Scattered Clouds
7:19 PM 73.4 °F 59.9 °F 63% 29.82 in 10.0 mi SSE 4.6 mph - N/A   Mostly Cloudy
7:37 PM 73.4 °F 60.3 °F 63% 29.82 in 10.0 mi SSE 5.8 mph - N/A   Overcast
7:55 PM 72.9 °F 60.4 °F 65% 29.82 in 10.0 mi SSE 4.6 mph - N/A   Overcast
8:15 PM 72.9 °F 60.6 °F 65% 29.82 in 10.0 mi SSE 5.8 mph - N/A   Overcast
8:35 PM 72.7 °F 60.8 °F 66% 29.81 in 10.0 mi SSE 5.8 mph - N/A   Overcast
8:58 PM 72.7 °F 61.3 °F 67% 29.81 in 10.0 mi SSE 6.9 mph - N/A   Overcast
9:15 PM 72.1 °F 61.7 °F 70% 29.80 in 10.0 mi SSE 6.9 mph - N/A   Mostly Cloudy
9:35 PM 71.6 °F 62.8 °F 74% 29.81 in 10.0 mi South 6.9 mph - N/A Rain Light Rain
9:55 PM 69.8 °F 64.2 °F 82% 29.83 in 7.0 mi WSW 8.1 mph - 0.01 in Rain Rain
9:56 PM 69.6 °F 64.2 °F 83% 29.83 in 7.0 mi WSW 5.8 mph - 0.05 in Rain Heavy Rain
10:19 PM 67.6 °F 66.2 °F 95% 29.82 in 3.0 mi SW 4.6 mph - 0.15 in Rain Light Rain
10:37 PM 67.5 °F 66.4 °F 96% 29.82 in 10.0 mi Calm Calm - 0.15 in   Overcast
10:55 PM 65.3 °F 64.4 °F 97% 29.82 in 2.0 mi Calm Calm - 0.15 in   Mostly Cloudy
10:56 PM 65.3 °F 64.4 °F 97% 29.82 in 2.0 mi Calm Calm - 0.15 in   Mostly Cloudy
11:15 PM 65.3 °F 64.6 °F 98% 29.82 in 1.2 mi SE 3.5 mph - N/A   Mostly Cloudy
11:35 PM 64.6 °F 63.9 °F 98% 29.82 in 0.8 mi Calm Calm - N/A   Mostly Cloudy
11:40 PM 64.6 °F 63.9 °F 98% 29.82 in 0.5 mi Calm Calm - N/A Fog Fog
11:58 PM 64.4 °F 63.5 °F 97% 29.83 in 0.2 mi Calm Calm - N/A Fog Fog